Temperature
17 17 17 17 17 17 17 17 17 17 17 17 17 17 17 17 17 17 17 17 17 17 17 17 17 17 17 17 18 18 18 18 18 18 18 18 18 18 18 18 18 18 18
17 17 17 17 17 17 17 17 17 17 17 17 17 17 17 17 17 17 17 17 17 17 17 17 17 17 17 17 17 17 17 18 18 18 18 18 18 18 18 18 18 18 18
16 16 17 17 17 17 17 17 17 17 17 17 17 17 17 16 16 17 17 17 17 17 17 17 17 17 17 17 17 17 17 17 17 18 17 17 17 18 18 18 18 18 18
16 16 16 17 17 17 17 17 17 17 17 17 17 16 16 16 16 17 17 17 17 17 17 17 17 17 17 17 17 17 17 17 17 17 17 17 17 17 17 17 17 18 18
16 16 16 17 17 17 17 17 17 16 16 16 16 16 16 16 16 16 16 16 16 16 17 17 17 17 17 17 17 17 17 17 17 17 16 17 17 17 17 17 17 17 17
16 16 16 16 16 16 16 16 16 16 16 16 16 16 16 16 16 16 16 16 16 16 16 16 17 17 17 17 17 17 17 17 16 16 16 16 17 17 17 17 17 17 17
16 16 16 16 16 16 16 16 16 16 16 16 16 16 16 16 16 16 16 16 16 16 16 16 17 17 17 17 17 17 17 17 16 16 16 16 17 17 17 17 17 17 17
16 16 16 16 16 16 16 16 16 16 16 16 16 16 16 16 16 16 16 16 16 16 16 16 16 16 16 16 16 16 17 16 16 16 16 16 17 17 17 17 17 17 17
16 16 16 16 16 16 16 16 16 16 16 16 16 16 16 16 16 16 16 16 16 16 16 16 16 16 16 16 16 16 16 16 16 16 16 16 16 17 17 17 17 17 17
16 16 16 16 16 16 16 16 16 16 16 16 16 16 16 16 16 16 16 16 16 16 16 16 16 16 16 16 16 16 16 16 16 16 16 16 16 16 16 17 17 17 17
16 16 16 16 16 16 16 16 16 16 16 16 16 16 16 16 16 16 16 16 16 16 16 16 16 16 16 16 16 16 16 16 16 16 15 16 16 16 16 16 16 16 16
16 16 16 16 16 16 16 16 16 16 16 16 16 16 16 16 16 16 16 16 16 16 16 16 16 16 16 16 16 16 16 16 16 15 15 16 16 16 16 16 16 16 16
17 16 16 16 16 16 16 16 16 16 16 16 16 16 16 16 16 16 16 16 16 16 15 16 16 16 16 16 16 16 15 15 15 15 15 15 15 15 15 15 16 16 16
17 17 16 16 17 16 16 16 16 16 16 16 16 16 16 16 16 16 16 15 15 15 15 15 15 16 16 16 16 16 15 15 15 15 15 15 15 15 15 15 15 15 16
17 17 17 17 17 17 16 16 16 16 16 16 16 16 16 16 16 16 16 15 15 15 15 15 16 16 16 16 16 15 15 15 15 15 15 15 15 15 15 15 15 15 15
17 17 17 17 16 16 16 16 16 16 16 16 16 16 16 16 16 16 16 15 15 15 15 15 15 15 15 15 15 15 15 15 15 15 14 14 15 15 15 15 15 15 15
17 17 17 17 16 16 16 16 16 16 16 16 16 16 16 16 16 16 16 16 15 15 15 15 15 15 15 15 15 15 15 15 15 14 14 14 14 15 15 15 15 15 15
17 17 17 16 16 16 16 16 16 16 16 16 16 16 16 16 16 16 16 15 15 15 15 15 15 15 15 15 15 15 15 15 14 14 14 14 14 14 14 15 15 14 15
17 17 17 17 16 16 16 16 16 16 16 16 16 16 16 16 16 16 16 16 15 15 15 15 15 15 15 15 15 15 15 14 14 14 14 14 14 14 14 14 14 14 14
17 17 17 17 16 16 16 16 16 16 16 16 16 16 16 16 16 16 16 16 15 15 15 15 15 15 15 15 15 15 15 14 14 14 14 14 14 14 14 14 14 14 14
17 17 17 17 16 16 16 16 16 16 16 16 16 16 16 16 16 16 16 15 15 15 15 15 15 15 15 15 15 15 15 14 14 14 14 14 14 14 14 13 13 14 14
18 17 17 17 17 16 16 16 16 16 16 16 16 16 16 16 15 15 15 15 15 15 15 15 15 15 15 15 15 15 16 15 14 14 14 14 14 14 13 13 13 13 13
18 18 17 17 17 17 16 16 16 16 16 16 16 16 16 16 15 15 15 15 15 15 15 15 15 15 15 15 15 15 16 17 15 14 14 14 14 14 13 13 13 13 13
18 18 18 17 17 17 17 16 16 16 16 16 16 16 16 16 15 15 15 15 15 15 15 15 15 15 15 15 15 15 15 15 15 15 14 14 14 13 13 13 13 13 12
18 18 18 17 17 17 17 17 17 16 16 16 16 16 16 16 16 15 15 15 15 15 15 15 15 15 15 15 14 14 14 14 15 15 15 14 14 13 13 13 13 12 12
19 18 18 18 18 17 17 17 17 17 16 16 16 16 16 16 16 15 15 15 15 15 15 15 15 15 15 15 14 14 14 14 14 15 15 15 14 13 13 13 13 12 12
Wind_Speed
4 5 7 7 8 9 10 11 11 11 11 11 11 10 10 10 9 9 9 8 8 8 8 8 8 8 9 8 8 8 8 9 9 9 9 9 10 10 9 8 5 6 6
5 7 8 8 9 10 11 11 11 11 11 10 10 10 10 9 9 9 8 8 8 8 8 8 8 8 8 8 8 8 8 9 9 8 6 8 10 10 10 10 9 8 6
7 7 9 8 9 10 10 10 10 11 11 10 10 10 9 9 9 9 9 9 8 8 8 8 8 7 7 7 8 8 9 9 8 5 3 6 9 11 10 10 10 9 8
7 7 9 9 10 10 10 10 10 11 10 10 10 10 9 9 9 9 9 8 8 8 8 7 8 7 7 7 8 8 9 8 6 3 6 8 9 12 11 11 10 9 9
8 8 10 9 10 10 10 10 10 10 10 10 10 10 10 10 9 9 9 8 8 8 7 7 8 7 8 8 8 9 9 7 4 5 8 9 9 11 11 11 11 10 9
8 9 10 9 10 10 10 10 9 9 10 10 10 10 9 9 9 9 9 8 8 8 8 7 7 8 8 9 9 9 8 5 3 8 8 9 10 11 11 11 11 10 10
8 9 10 9 10 10 10 10 10 10 10 10 10 9 9 9 9 9 8 8 8 8 8 8 7 8 8 8 9 8 7 5 7 7 8 9 11 11 11 11 11 11 10
8 8 9 10 10 10 10 10 9 10 10 10 9 9 9 9 9 9 9 8 8 8 7 7 8 8 8 8 9 8 7 5 7 8 8 9 11 10 11 11 11 11 11
8 7 7 9 10 9 9 9 9 9 9 9 9 8 8 8 9 9 9 9 8 8 8 7 8 9 9 9 9 8 7 5 6 7 8 9 10 10 10 11 11 11 11
7 7 7 7 7 7 8 9 8 8 8 8 8 7 6 6 7 7 8 9 9 8 8 8 9 9 9 9 8 7 4 2 7 7 7 9 10 10 10 10 10 11 11
7 6 6 6 6 6 7 7 6 6 6 5 6 6 3 5 6 7 10 9 9 9 9 9 9 9 8 9 8 5 3 6 8 7 8 10 9 10 11 11 10 10 10
7 7 6 6 5 5 5 5 4 5 5 5 6 6 5 6 6 6 8 8 8 8 8 9 7 6 4 7 7 3 5 7 7 8 10 10 10 10 10 11 11 11 10
7 6 5 5 5 5 4 4 4 4 4 5 5 6 5 5 5 5 5 5 6 5 7 7 5 6 6 6 6 6 6 6 6 8 11 12 11 10 10 10 10 11 11
6 5 5 5 5 4 4 4 3 3 3 4 4 5 5 4 4 5 4 5 5 5 5 5 5 6 7 7 7 7 7 6 7 7 10 12 12 11 11 10 11 11 11
6 6 5 4 4 4 4 3 3 3 3 4 4 4 5 4 4 4 4 4 4 5 4 4 5 6 6 7 7 7 7 7 7 7 8 12 12 12 11 11 11 11 11
7 6 6 5 4 3 4 3 4 3 3 4 4 4 4 4 4 3 4 4 4 4 5 4 5 4 5 5 6 6 6 7 7 7 7 9 12 13 13 12 11 11 11
7 7 6 5 4 3 3 4 3 3 4 4 4 4 4 4 4 4 4 4 4 4 4 4 5 4 4 4 5 6 6 6 6 7 7 6 7 11 12 13 12 11 12
6 6 6 5 5 4 3 3 3 3 4 3 3 3 3 4 4 4 3 3 4 4 3 3 3 3 4 4 4 4 5 5 6 6 6 7 7 7 9 12 12 12 12
7 7 7 6 5 5 4 3 3 4 4 3 3 3 3 4 4 4 3 3 4 3 3 3 3 3 4 4 4 4 4 4 5 5 6 7 7 6 7 8 9 12 13
7 7 7 6 5 5 4 3 3 3 3 3 3 3 3 3 3 3 3 3 4 3 3 3 4 3 3 3 4 4 3 3 3 4 5 5 6 7 7 7 6 8 11
8 8 8 7 7 5 4 3 3 2 2 2 2 3 2 2 3 3 2 3 2 3 3 3 4 4 3 2 2 3 3 3 3 3 3 3 5 6 6 7 6 6 6
9 8 8 8 7 6 4 4 3 2 2 2 2 2 2 2 2 2 2 2 2 2 3 3 2 2 2 0 1 1 1 3 2 2 2 3 4 4 5 6 7 7 7
10 10 8 8 8 7 7 4 4 3 3 3 2 2 1 1 2 1 2 2 2 2 2 2 2 1 1 1 2 2 2 1 1 2 2 2 3 3 3 4 6 7 7
11 10 10 9 9 8 8 7 6 4 3 3 2 2 2 2 2 2 2 2 2 2 2 2 1 1 1 1 1 2 3 2 2 0 1 2 2 3 3 3 4 6 7
10 9 9 9 9 9 8 8 7 5 3 3 3 3 3 2 2 2 2 2 2 2 2 1 1 0 0 1 1 0 1 1 3 2 1 0 1 1 2 3 3 4 6
9 9 9 10 9 9 9 9 8 6 5 4 4 3 3 2 2 2 3 2 2 2 2 2 1 1 0 0 1 1 1 2 2 2 2 1 1 1 2 2 3 3 4
Wind_Direction
95 87 87 92 92 93 92 92 90 89 88 87 89 88 85 81 77 75 72 74 76 77 77 74 74 74 73 67 65 69 70 66 62 61 61 58 54 52 48 45 45 75 80
99 96 95 93 94 89 88 90 86 85 84 84 85 86 85 82 79 75 73 75 76 77 74 74 76 77 76 70 64 67 70 67 63 59 63 75 63 51 49 50 43 55 71
102 103 107 97 94 91 87 84 84 83 82 82 83 85 84 82 79 76 73 75 75 75 74 72 74 75 76 73 70 68 67 66 60 55 54 65 69 55 48 49 49 56 61
103 102 97 95 93 93 88 83 80 79 79 79 80 81 83 80 75 76 72 72 74 75 75 75 76 73 72 74 72 70 70 64 52 13 58 58 59 56 47 47 47 53 58
105 102 97 95 92 90 86 82 79 77 76 79 80 80 79 76 71 71 69 66 68 73 76 78 79 76 73 74 74 73 74 68 60 54 59 58 59 54 47 46 49 53 56
108 105 100 95 91 87 85 81 78 76 76 78 78 76 75 73 70 67 66 64 65 70 74 77 78 80 78 76 77 76 73 61 65 64 61 59 59 54 49 49 49 51 54
109 103 103 95 92 86 84 81 79 78 76 76 75 72 71 69 67 63 64 67 68 70 73 77 79 83 85 80 80 77 70 47 63 69 66 63 60 55 53 51 47 47 52
109 106 105 101 90 84 78 75 74 75 75 74 73 71 67 63 61 60 61 67 69 69 73 75 76 83 88 84 80 76 59 20 77 68 67 65 58 54 55 53 50 49 51
109 107 104 108 105 97 82 71 71 72 72 71 70 68 67 65 62 61 62 65 68 68 72 77 81 85 88 83 80 76 69 39 67 68 69 65 60 58 56 53 51 49 48
111 109 107 104 101 102 97 79 72 70 71 72 71 68 75 91 84 71 72 65 65 66 69 77 88 89 90 85 81 78 74 73 63 68 64 66 60 58 58 54 51 49 46
117 119 118 112 105 96 89 90 91 86 79 95 92 86 91 81 81 82 62 62 64 69 71 78 88 94 101 98 86 77 72 68 68 64 61 57 56 58 59 55 51 48 45
127 123 120 119 112 104 91 91 80 81 78 70 68 69 68 73 69 73 85 71 71 75 84 79 89 111 112 95 97 101 71 69 66 68 63 51 55 57 57 53 48 45 42
132 129 128 122 117 112 104 91 76 74 75 71 63 68 66 77 86 82 85 90 83 86 85 94 101 80 80 76 74 73 63 59 63 66 60 49 51 52 51 49 44 42 40
142 138 138 133 123 115 106 93 85 81 75 68 59 62 66 68 72 76 79 72 74 75 73 79 76 82 84 82 75 73 72 65 61 63 60 48 46 45 45 44 43 40 37
153 153 148 142 122 110 97 88 86 74 64 75 61 60 69 68 73 82 84 79 76 80 87 79 82 79 78 75 72 70 72 68 64 63 64 56 49 46 44 43 41 40 38
164 157 150 152 132 119 115 102 80 74 80 72 66 58 67 71 72 81 87 83 79 77 79 88 91 89 81 77 74 71 66 68 65 63 61 70 64 53 46 44 40 38 37
166 161 158 156 146 130 109 87 80 71 72 71 73 63 67 70 74 78 75 81 84 88 90 89 90 86 86 89 83 75 70 63 64 61 57 52 63 65 52 43 39 38 37
174 168 162 163 156 138 120 105 92 79 69 65 70 61 65 72 73 77 77 81 87 91 91 88 85 92 94 90 84 76 76 71 66 62 60 60 53 49 61 52 43 39 37
181 177 171 169 160 149 137 124 98 88 74 66 65 57 53 64 71 83 77 84 95 95 93 95 90 94 94 91 93 85 75 69 63 57 58 54 56 49 51 64 58 47 38
186 182 175 169 168 155 152 139 121 100 89 70 63 63 50 58 74 89 95 93 94 101 104 105 104 94 91 98 94 89 83 84 74 56 50 50 45 46 43 41 46 58 50
191 191 183 181 175 169 164 165 155 141 125 99 77 74 74 68 75 86 93 85 91 103 107 115 117 116 109 107 127 117 110 90 76 68 46 42 51 45 41 41 35 30 46
196 198 196 191 184 179 175 171 171 158 148 116 114 95 83 82 85 105 111 109 108 112 118 115 128 127 112 29 286 234 169 147 108 72 54 34 37 47 38 36 36 34 27
200 199 199 196 188 185 179 173 168 163 175 168 157 129 93 100 106 109 123 120 123 141 129 126 142 141 137 116 360 330 323 11 81 110 62 52 39 31 37 33 32 31 28
201 199 199 195 192 186 183 187 187 193 191 184 166 147 144 142 140 148 150 151 144 129 130 145 129 145 212 160 96 4 356 4 303 182 134 68 39 30 27 24 24 27 25
198 197 199 193 191 189 190 191 201 203 195 179 168 160 162 145 155 162 165 164 156 150 148 131 126 151 229 307 314 357 26 331 297 310 311 338 64 48 29 18 17 19 19
192 194 195 192 191 191 195 198 204 203 199 190 190 181 178 161 165 165 169 170 169 164 161 157 153 149 25 20 314 311 304 307 318 314 299 298 334 38 32 26 9 18 13
Height
1548 1547 1546 1547 1548 1548 1548 1548 1548 1547 1547 1547 1547 1546 1546 1546 1546 1546 1546 1545 1545 1545 1545 1545 1545 1545 1545 1545 1545 1545 1544 1544 1543 1543 1543 1542 1541 1541 1540 1539 1539 1539 1538
1548 1548 1548 1548 1549 1549 1549 1549 1549 1549 1548 1548 1548 1547 1547 1547 1547 1547 1546 1546 1546 1546 1546 1546 1546 1546 1546 1546 1546 1546 1545 1545 1545 1544 1544 1544 1543 1542 1541 1540 1539 1539 1538
1549 1549 1549 1549 1550 1550 1550 1550 1550 1550 1550 1549 1549 1549 1548 1548 1548 1548 1547 1547 1547 1547 1547 1547 1547 1548 1547 1547 1547 1547 1547 1546 1546 1546 1546 1546 1544 1543 1542 1541 1541 1540 1540
1550 1551 1551 1551 1551 1552 1551 1552 1551 1551 1551 1550 1550 1550 1549 1549 1549 1549 1548 1548 1548 1548 1548 1548 1548 1549 1548 1548 1548 1548 1548 1547 1547 1547 1548 1547 1546 1544 1544 1543 1542 1542 1541
1552 1552 1552 1552 1553 1553 1553 1553 1553 1552 1552 1552 1551 1551 1551 1550 1550 1550 1549 1549 1549 1549 1549 1549 1549 1550 1550 1550 1549 1549 1549 1549 1548 1549 1548 1547 1547 1546 1545 1544 1543 1543 1542
1553 1554 1554 1554 1554 1554 1554 1554 1554 1554 1553 1553 1553 1552 1552 1552 1551 1551 1551 1550 1550 1550 1550 1550 1551 1551 1551 1551 1551 1550 1550 1550 1551 1550 1549 1549 1548 1547 1546 1546 1545 1544 1543
1555 1556 1556 1555 1555 1555 1555 1556 1555 1555 1555 1554 1554 1554 1554 1553 1553 1552 1552 1552 1552 1551 1551 1552 1552 1552 1552 1552 1552 1552 1552 1551 1552 1551 1551 1550 1549 1549 1548 1547 1546 1545 1544
1557 1557 1557 1557 1557 1557 1557 1557 1557 1557 1556 1556 1556 1555 1555 1555 1554 1554 1553 1553 1553 1553 1553 1553 1553 1553 1553 1553 1553 1553 1553 1553 1553 1553 1553 1552 1551 1550 1549 1548 1547 1546 1545
1558 1559 1560 1560 1559 1559 1559 1558 1558 1558 1558 1558 1557 1557 1557 1556 1556 1555 1555 1555 1554 1554 1554 1554 1554 1554 1554 1554 1554 1554 1554 1554 1555 1555 1554 1553 1552 1551 1551 1550 1549 1548 1547
1559 1560 1561 1561 1562 1562 1561 1560 1560 1560 1560 1559 1559 1559 1558 1558 1558 1557 1557 1556 1556 1556 1555 1555 1555 1555 1556 1556 1556 1556 1555 1556 1556 1556 1555 1554 1553 1552 1552 1551 1550 1549 1548
1561 1562 1562 1563 1563 1563 1563 1562 1562 1562 1561 1561 1561 1560 1560 1561 1561 1560 1559 1558 1558 1557 1557 1556 1556 1557 1557 1557 1557 1557 1557 1558 1557 1557 1556 1555 1554 1554 1553 1552 1551 1550 1549
1562 1563 1564 1564 1564 1565 1564 1564 1564 1564 1564 1564 1563 1563 1563 1562 1562 1561 1560 1559 1559 1559 1558 1558 1558 1558 1559 1560 1559 1559 1560 1560 1559 1559 1557 1556 1555 1554 1553 1553 1552 1551 1550
1563 1564 1565 1565 1565 1566 1565 1566 1566 1566 1565 1565 1565 1564 1564 1564 1563 1563 1562 1562 1561 1561 1561 1560 1561 1561 1561 1561 1561 1561 1561 1561 1561 1560 1558 1557 1556 1555 1554 1553 1552 1552 1550
1564 1565 1566 1566 1567 1567 1567 1567 1567 1567 1567 1567 1566 1566 1565 1565 1565 1564 1564 1563 1563 1563 1562 1563 1563 1563 1563 1563 1563 1563 1562 1562 1562 1561 1559 1558 1557 1556 1555 1554 1553 1552 1551
1565 1566 1567 1567 1568 1568 1567 1567 1568 1568 1568 1568 1567 1567 1566 1566 1566 1565 1565 1564 1564 1564 1564 1564 1564 1564 1565 1565 1564 1564 1564 1563 1563 1562 1561 1559 1558 1557 1556 1555 1554 1552 1551
1565 1566 1567 1568 1568 1568 1569 1569 1569 1569 1568 1568 1568 1568 1567 1567 1567 1566 1566 1566 1566 1565 1566 1566 1566 1565 1566 1566 1565 1565 1565 1564 1564 1563 1562 1561 1559 1558 1557 1555 1554 1553 1552
1566 1567 1567 1568 1568 1569 1569 1569 1569 1569 1569 1569 1569 1569 1568 1568 1568 1567 1567 1567 1567 1567 1567 1567 1567 1567 1567 1567 1567 1566 1566 1565 1565 1564 1563 1562 1561 1559 1557 1556 1555 1554 1552
1566 1567 1568 1568 1569 1569 1569 1569 1570 1570 1570 1570 1569 1569 1569 1569 1569 1568 1568 1568 1567 1567 1568 1568 1568 1568 1568 1568 1568 1568 1567 1566 1566 1565 1565 1563 1562 1561 1559 1557 1556 1554 1553
1565 1567 1568 1568 1569 1569 1570 1570 1570 1571 1570 1570 1570 1570 1570 1570 1569 1569 1569 1569 1568 1568 1568 1569 1569 1569 1569 1569 1569 1568 1568 1567 1567 1566 1566 1565 1563 1562 1560 1558 1556 1555 1553
1565 1566 1567 1568 1569 1569 1570 1571 1571 1571 1571 1571 1571 1571 1570 1570 1570 1570 1570 1570 1570 1569 1569 1569 1569 1569 1569 1569 1570 1569 1569 1568 1568 1567 1566 1565 1565 1563 1561 1560 1558 1556 1554
1564 1565 1567 1568 1568 1569 1570 1571 1571 1572 1572 1572 1572 1571 1571 1571 1571 1571 1571 1571 1570 1570 1570 1571 1570 1570 1570 1570 1571 1571 1570 1569 1569 1568 1567 1566 1565 1563 1562 1561 1559 1557 1555
1563 1564 1566 1567 1568 1569 1569 1571 1571 1572 1572 1572 1572 1572 1572 1572 1571 1572 1572 1572 1571 1571 1571 1571 1571 1571 1571 1571 1572 1571 1571 1572 1569 1568 1567 1566 1566 1564 1563 1561 1560 1558 1556
1561 1562 1564 1566 1567 1568 1569 1570 1571 1572 1572 1572 1572 1572 1572 1572 1572 1572 1572 1572 1572 1572 1572 1572 1571 1571 1572 1571 1571 1572 1571 1570 1571 1570 1568 1567 1566 1565 1564 1562 1560 1558 1557
1559 1561 1563 1564 1566 1567 1568 1569 1571 1571 1572 1572 1572 1572 1572 1572 1572 1572 1572 1572 1572 1572 1572 1572 1572 1572 1571 1572 1571 1571 1571 1571 1571 1570 1569 1568 1566 1565 1564 1562 1561 1559 1557
1556 1559 1561 1563 1565 1566 1567 1568 1570 1571 1572 1572 1572 1572 1572 1572 1572 1572 1572 1572 1572 1572 1572 1572 1572 1572 1571 1572 1571 1571 1570 1570 1570 1570 1569 1568 1567 1565 1564 1562 1561 1559 1557
1554 1556 1558 1561 1563 1564 1566 1567 1568 1570 1570 1571 1571 1572 1572 1572 1571 1571 1571 1571 1572 1572 1572 1572 1571 1571 1571 1571 1571 1571 1570 1570 1570 1569 1569 1568 1567 1566 1564 1562 1561 1559 1557